• In United Kingdom
  • List of Countries
  • For 7 days
  • Water Temperature
  • Satellite Maps
  • Weather Map
  • Weather Widgets
  • user-avatar
    Login

    Hourly Weather Hermosillo

    Today, 23 July, Monday

    Time Temperature Precipitation Wind Pressure Humidity
    00:00 +40°C° 0.5 mm 4 mps 740 mmHg 35%
    01:00 +38°C° 0.5 mm 3 mps 740 mmHg 37%
    02:00 +38°C° 0.5 mm 2 mps 740 mmHg 39%
    03:00 +37°C° 0 mm 2 mps 740 mmHg 40%
    04:00 +37°C° 0 mm 2 mps 740 mmHg 40%
    05:00 +37°C° 0 mm 2 mps 739 mmHg 38%
    06:00 +37°C° 0.3 mm 2 mps 740 mmHg 37%
    07:00 +38°C° 0.3 mm 2 mps 740 mmHg 36%
    08:00 +38°C° 0.3 mm 2 mps 740 mmHg 34%
    09:00 +39°C° 0.1 mm 1 mps 740 mmHg 31%
    10:00 +41°C° 0.1 mm 1 mps 740 mmHg 28%
    11:00 +42°C° 0.1 mm 1 mps 740 mmHg 25%
    12:00 +43°C° 0 mm 1 mps 740 mmHg 23%
    13:00 +44°C° 0 mm 1 mps 739 mmHg 22%
    14:00 +47°C° 0 mm 2 mps 739 mmHg 20%
    15:00 +47°C° 0 mm 3 mps 739 mmHg 19%
    16:00 +47°C° 0 mm 3 mps 738 mmHg 18%
    17:00 +49°C° 0 mm 4 mps 738 mmHg 18%
    18:00 +47°C° 0 mm 4 mps 738 mmHg 19%
    19:00 +46°C° 0 mm 5 mps 738 mmHg 21%
    20:00 +45°C° 0 mm 5 mps 738 mmHg 22%
    21:00 +43°C° 0.1 mm 5 mps 739 mmHg 23%
    22:00 +42°C° 0.1 mm 5 mps 739 mmHg 24%
    23:00 +41°C° 0.1 mm 4 mps 739 mmHg 26%

    Tomorrow, 24 July, Tuesday

    Time Temperature Precipitation Wind Pressure Humidity
    00:00 +40°C° 0.4 mm 3 mps 739 mmHg 29%
    01:00 +39°C° 0.4 mm 2 mps 739 mmHg 31%
    02:00 +38°C° 0.4 mm 2 mps 739 mmHg 34%
    03:00 +37°C° 0.2 mm 2 mps 739 mmHg 37%
    04:00 +37°C° 0.2 mm 2 mps 739 mmHg 40%
    05:00 +36°C° 0.2 mm 2 mps 740 mmHg 42%
    06:00 +36°C° 0.2 mm 3 mps 740 mmHg 42%
    07:00 +36°C° 0.2 mm 3 mps 740 mmHg 42%
    08:00 +36°C° 0.2 mm 3 mps 741 mmHg 42%
    09:00 +37°C° 0.1 mm 3 mps 741 mmHg 39%
    10:00 +38°C° 0.1 mm 3 mps 741 mmHg 37%
    11:00 +40°C° 0.1 mm 3 mps 741 mmHg 34%
    12:00 +40°C° 0 mm 3 mps 741 mmHg 32%
    13:00 +42°C° 0 mm 3 mps 740 mmHg 30%
    14:00 +43°C° 0 mm 3 mps 740 mmHg 29%
    15:00 +43°C° 0 mm 3 mps 740 mmHg 29%
    16:00 +44°C° 0 mm 3 mps 739 mmHg 29%
    17:00 +44°C° 0 mm 3 mps 739 mmHg 28%
    18:00 +43°C° 0 mm 4 mps 739 mmHg 31%
    19:00 +42°C° 0 mm 4 mps 740 mmHg 34%
    20:00 +41°C° 0 mm 5 mps 740 mmHg 37%
    21:00 +40°C° 0 mm 4 mps 740 mmHg 39%
    22:00 +38°C° 0 mm 4 mps 741 mmHg 41%
    23:00 +38°C° 0 mm 3 mps 741 mmHg 43%

    Day after tomorrow, 25 July, Wednesday

    Time Temperature Precipitation Wind Pressure Humidity
    00:00 +37°C° 0 mm 3 mps 741 mmHg 45%
    01:00 +37°C° 0 mm 3 mps 741 mmHg 47%
    02:00 +36°C° 0 mm 3 mps 741 mmHg 49%
    03:00 +36°C° 0 mm 2 mps 741 mmHg 51%
    04:00 +36°C° 0 mm 2 mps 741 mmHg 52%
    05:00 +35°C° 0 mm 2 mps 741 mmHg 53%
    06:00 +35°C° 0 mm 2 mps 742 mmHg 53%
    07:00 +36°C° 0 mm 2 mps 742 mmHg 52%
    08:00 +36°C° 0 mm 2 mps 742 mmHg 52%
    09:00 +37°C° 0 mm 3 mps 742 mmHg 49%
    10:00 +38°C° 0 mm 3 mps 743 mmHg 47%
    11:00 +39°C° 0 mm 3 mps 743 mmHg 44%
    12:00 +41°C° 0 mm 4 mps 742 mmHg 42%
    13:00 +41°C° 0 mm 4 mps 742 mmHg 39%
    14:00 +42°C° 0 mm 4 mps 741 mmHg 37%
    15:00 +42°C° 0 mm 5 mps 741 mmHg 36%
    16:00 +42°C° 0 mm 5 mps 740 mmHg 36%
    17:00 +42°C° 0 mm 6 mps 739 mmHg 36%
    18:00 +42°C° 0.1 mm 5 mps 740 mmHg 38%
    19:00 +41°C° 0.1 mm 4 mps 740 mmHg 40%
    20:00 +40°C° 0.1 mm 4 mps 741 mmHg 42%
    21:00 +38°C° 0.5 mm 4 mps 741 mmHg 46%
    22:00 +37°C° 0.5 mm 4 mps 742 mmHg 49%
    23:00 +36°C° 0.5 mm 5 mps 742 mmHg 53%

    26 July, Thursday

    Time Temperature Precipitation Wind Pressure Humidity
    00:00 +36°C° 0.5 mm 4 mps 742 mmHg 56%
    01:00 +35°C° 0.5 mm 3 mps 742 mmHg 59%
    02:00 +35°C° 0.5 mm 2 mps 742 mmHg 62%
    03:00 +34°C° 0.2 mm 2 mps 741 mmHg 62%
    04:00 +34°C° 0.2 mm 2 mps 741 mmHg 63%
    05:00 +33°C° 0.2 mm 1 mps 741 mmHg 64%
    06:00 +33°C° 0.1 mm 1 mps 741 mmHg 63%
    07:00 +33°C° 0.1 mm 1 mps 741 mmHg 61%
    08:00 +35°C° 0.1 mm 2 mps 742 mmHg 60%
    09:00 +35°C° 0 mm 1 mps 742 mmHg 56%
    10:00 +36°C° 0 mm 1 mps 742 mmHg 52%
    11:00 +37°C° 0 mm 1 mps 742 mmHg 48%
    12:00 +39°C° 0 mm 2 mps 741 mmHg 45%
    13:00 +40°C° 0 mm 3 mps 741 mmHg 41%
    14:00 +42°C° 0 mm 4 mps 740 mmHg 38%
    15:00 +42°C° 0 mm 4 mps 740 mmHg 38%
    16:00 +42°C° 0 mm 5 mps 739 mmHg 37%
    17:00 +42°C° 0 mm 5 mps 739 mmHg 37%
    18:00 +41°C° 0.3 mm 5 mps 739 mmHg 40%
    19:00 +40°C° 0.3 mm 5 mps 740 mmHg 43%
    20:00 +37°C° 0.3 mm 5 mps 740 mmHg 46%
    21:00 +37°C° 0.7 mm 5 mps 740 mmHg 50%
    22:00 +36°C° 0.7 mm 5 mps 740 mmHg 53%
    23:00 +35°C° 0.7 mm 4 mps 740 mmHg 56%

    27 July, Friday

    Time Temperature Precipitation Wind Pressure Humidity
    00:00 +34°C° 3.1 mm 5 mps 740 mmHg 61%
    01:00 +33°C° 3.1 mm 5 mps 740 mmHg 67%
    02:00 +32°C° 3.1 mm 6 mps 740 mmHg 72%
    03:00 +32°C° 0.7 mm 5 mps 740 mmHg 71%
    04:00 +33°C° 0.7 mm 3 mps 740 mmHg 70%
    05:00 +32°C° 0.7 mm 2 mps 740 mmHg 69%
    06:00 +32°C° 0.1 mm 1 mps 740 mmHg 67%
    07:00 +32°C° 0.1 mm 1 mps 740 mmHg 65%
    08:00 +32°C° 0.1 mm 1 mps 740 mmHg 63%
    09:00 +33°C° 0 mm 1 mps 740 mmHg 59%
    10:00 +34°C° 0 mm 1 mps 741 mmHg 55%
    11:00 +35°C° 0 mm 1 mps 741 mmHg 51%
    12:00 +36°C° 0 mm 1 mps 740 mmHg 48%
    13:00 +38°C° 0 mm 2 mps 740 mmHg 45%
    14:00 +39°C° 0 mm 2 mps 739 mmHg 41%
    15:00 +39°C° 0 mm 2 mps 739 mmHg 41%
    16:00 +39°C° 0 mm 3 mps 739 mmHg 41%
    17:00 +40°C° 0 mm 3 mps 739 mmHg 40%
    18:00 +38°C° 0.4 mm 4 mps 739 mmHg 44%
    19:00 +37°C° 0.4 mm 4 mps 739 mmHg 49%
    20:00 +36°C° 0.4 mm 5 mps 739 mmHg 53%
    21:00 +35°C° 1.2 mm 4 mps 740 mmHg 56%
    22:00 +35°C° 1.2 mm 2 mps 741 mmHg 60%
    23:00 +33°C° 1.2 mm 1 mps 741 mmHg 63%

    28 July, Saturday

    Time Temperature Precipitation Wind Pressure Humidity
    00:00 +33°C° 0.5 mm 1 mps 741 mmHg 63%
    01:00 +34°C° 0.5 mm 2 mps 741 mmHg 64%
    02:00 +34°C° 0.5 mm 2 mps 740 mmHg 65%
    03:00 +34°C° 0.2 mm 2 mps 740 mmHg 66%
    04:00 +32°C° 0.2 mm 2 mps 740 mmHg 67%
    05:00 +32°C° 0.2 mm 2 mps 740 mmHg 68%
    06:00 +34°C° 0 mm 2 mps 740 mmHg 65%
    07:00 +34°C° 0 mm 2 mps 740 mmHg 63%
    08:00 +34°C° 0 mm 2 mps 741 mmHg 61%
    09:00 +35°C° 0 mm 2 mps 741 mmHg 57%
    10:00 +36°C° 0 mm 2 mps 741 mmHg 53%
    11:00 +37°C° 0 mm 3 mps 741 mmHg 49%
    12:00 +37°C° 0 mm 3 mps 740 mmHg 47%
    13:00 +38°C° 0 mm 3 mps 740 mmHg 45%
    14:00 +39°C° 0 mm 3 mps 740 mmHg 43%
    15:00 +39°C° 0 mm 3 mps 740 mmHg 43%
    16:00 +39°C° 0 mm 3 mps 739 mmHg 42%
    17:00 +39°C° 0 mm 3 mps 739 mmHg 42%
    18:00 +38°C° 0.1 mm 3 mps 740 mmHg 43%
    19:00 +37°C° 0.1 mm 3 mps 740 mmHg 45%
    20:00 +37°C° 0.1 mm 3 mps 740 mmHg 46%
    21:00 +36°C° 0.3 mm 3 mps 740 mmHg 48%
    22:00 +36°C° 0.3 mm 3 mps 741 mmHg 50%
    23:00 +35°C° 0.3 mm 3 mps 741 mmHg 52%
    Show more